Regional Weather Roundup
Issued by NWS

Home | Current Version | Previous Version | Text Only | Print | Product List | Glossary On
Versions: 1 2 3 4 5 6 7 8 9 10 11 12 13 14 15 16 17 18 19 20 21 22 23 24 25 26 27 28 29 30 31 32 33 34 35 36 37 38 39 40 41 42 43 44 45 46 47 48 49 50
000
ASUS45 KPSR 222210
RWRAZ

ARIZONA REGIONAL HOURLY WEATHER ROUNDUP
NATIONAL WEATHER SERVICE PHOENIX AZ
300 PM MST MON SEP 22 2014

NOTE: FAIR INDICATES FEW OR NO CLOUDS BELOW 12,000 FEET WITH NO
SIGNIFICANT WEATHER AND/OR OBSTRUCTIONS TO VISIBILITY.

AZZ001>003-036-222300-
NORTHWEST ARIZONA

CITY           SKY/WX    TMP DP  RH WIND       PRES   REMARKS
BULLHEAD CITY  SUNNY     99  39  12 SW3       29.88F
KINGMAN        SUNNY     90  38  16 SW16      30.06F
$$

AZZ004>008-015-016-018-222300-
NORTH CENTRAL ARIZONA

CITY           SKY/WX    TMP DP  RH WIND       PRES   REMARKS
GRAND CANYON   PTSUNNY   76  41  28 W10G23    30.28F
PRESCOTT       MOSUNNY   82  49  31 S8        30.18F
FLAGSTAFF      MOSUNNY   74  42  31 SW16G24   30.31F
PAYSON         SUNNY     82  55  39 W9        30.20F
PAGE           SUNNY     86  38  18 VRB7      30.11F
$$

AZZ009>014-017-222300-
NORTHEAST ARIZONA

CITY           SKY/WX    TMP DP  RH WIND       PRES   REMARKS
WINSLOW        FAIR      86  48  26 VRB6      30.14F
SAINT JOHNS    LGT RAIN  73  63  70 SW6       30.20F
SHOW LOW       MOSUNNY   77  54  44 SW14      30.27F
$$

AZZ023-222300-
GREATER PHOENIX AREA

CITY           SKY/WX    TMP DP  RH WIND       PRES   REMARKS
PHOENIX        MOSUNNY   99  50  19 W10       29.88F
GLENDALE       MOSUNNY   99  52  20 W6        29.91F
LUKE AFB       SUNNY     98  52  21 CALM      29.88F
DEER VALLEY    SUNNY     96  52  22 CALM      29.91F
SCOTTSDALE     SUNNY     96  54  24 CALM      29.92F
MESA-FALCON    MOSUNNY   97  61  30 W9        29.90F
MESA-GATEWAY   MOSUNNY   97  63  32 CALM      29.92F
CHANDLER       MOSUNNY   97  63  32 SW12      29.90F
$$

AZZ027-028-222300-
SOUTHWEST MARICOPA COUNTY AND PINAL COUNTY

CITY           SKY/WX    TMP DP  RH WIND       PRES   REMARKS
CASA GRANDE    PTSUNNY   97  61  30 W10G16    29.92F
GILA BEND      CLEAR    100  41  13 NW5G13    29.90F
$$

AZZ503-504-507>509-222300-
SOUTHEAST ARIZONA

CITY           SKY/WX    TMP DP  RH WIND       PRES   REMARKS
TUCSON         SUNNY     96  59  29 VRB3      29.99F
DAVIS-MONTHAN  SUNNY     92  59  32 VRB2      29.97F
RYAN FIELD       N/A     95  61  31 NW5       29.98F
NOGALES        MOSUNNY   89  61  38 N6        30.06F
SIERRA VISTA   PTSUNNY   81  61  50 S5        30.14F
DOUGLAS        MOSUNNY   84  61  45 CALM      30.09F
SAFFORD        MOSUNNY   86  63  45 CALM      30.02F
$$

AZZ020-021-025-026-031-222300-
SOUTHWEST ARIZONA

CITY           SKY/WX    TMP DP  RH WIND       PRES   REMARKS
YUMA           MOSUNNY  102  44  14 VRB5      29.84F
$$

CAZ031-033-041-043-047-048-061-222300-
SOUTHERN CALIFORNIA

CITY           SKY/WX    TMP DP  RH WIND       PRES   REMARKS
DOWNTOWN L.A.  SUNNY     76  62  62 VRB3      29.93F
L.A. AIRPORT   MOSUNNY   72  63  73 W15       29.95F
SAN DIEGO      MOSUNNY   77  62  59 W9        29.94F
BURBANK        SUNNY     84  57  39 S7        29.93F
ONTARIO        SUNNY     90  55  30 SW14      29.92F
RIVERSIDE      SUNNY     90  56  31 W13G18    29.92F
PALM SPRINGS   SUNNY    100  42  13 SE12      29.86F
EL CENTRO NAS  SUNNY    100  49  17 S5        29.82F
IMPERIAL       SUNNY    101  50  18 S9        29.81F
BLYTHE         SUNNY     99  42  14 SE8       29.86F
NEEDLES        SUNNY    100  40  12 VRB6      29.88F
$$

NVZ020-UTZ003-222300-
SOUTHERN NEVADA-UTAH

CITY           SKY/WX    TMP DP  RH WIND       PRES   REMARKS
LAS VEGAS      MOSUNNY   94  42  16 E9        29.93F
SALT LAKE CITY PTSUNNY   74  53  48 VRB7      30.11F
$$

NMZ009-TXZ055-222300-
NEW MEXICO-WEST TEXAS

CITY           SKY/WX    TMP DP  RH WIND       PRES   REMARKS
ALBUQUERQUE    PTSUNNY   79  54  41 S7        30.20S
EL PASO        CLOUDY    70  64  81 E9        30.15F
$$


........................KEY........................
SKY/WX - SKY CONDITION/WEATHER
TMP    - TEMPERATURE IN FAHRENHEIT
DP     - DEW POINT IN FAHRENHEIT
RH     - RELATIVE HUMIDITY IN PERCENT
WIND   - DIRECTION AND SPEED IN MILES PER HOUR (MPH)
VRB    - VARIABLE WIND DIRECTION
PRES   - MEAN SEA LEVEL PRESSURE IN INCHES OF MERCURY
         F - FALLING PRESSURE   R - RISING PRESSURE
         S - STEADY PRESSURE
VSB    - VISIBILITY IN MILES
HX     - HEAT INDEX IN FAHRENHEIT
WCI    - WIND CHILL INDEX IN FAHRENHEIT
TC     - TEMPERATURE IN CELSIUS WHICH IS ALSO KNOWN AS
         TEMPERATURE IN CENTIGRADE
AFB    - AIR FORCE BASE
         LUKE AFB IS LUKE AIR FORCE BASE
         DAVIS-MONTHAN IS DAVIS-MONTHAN AIR FORCE BASE
NAS    - NAVAL AIR STATION
         EL CENTRO NAS IS EL CENTRO NAVAL AIR STATION
N/A    - NOT AVAILABLE



USA.gov is the U.S. government's official web portal to all federal, state and local government web resources and services.